Showing default

KUIPER-00276, 67794

Orbit data source: Space-Track

KUIPER-00276, 67794 is a payload satellite owned by Kuiper Systems (US) in LEO that was launched on Thu, 12 Feb 2026 UTC via an ARIANE 64 launch vehicle from the French Guiana (FRGUI). Payload-class satellites include a variety of spacecraft equipped with specific instruments for various scientific and technological missions. These include communications satellites like Starlink; space stations such as the ISS; scientific satellites like the Hubble; Earth observation satellites from companies like Planet Labs, Umbra, and HawkEye 360; GPS; miniature CubeSats for education and research; and military/defense satellites.

Loading next visibility...
Identifier
67794, 2026-030AG
Orbit
LEO
Country
Flag of USUS
Related business
Manufacturer
Kuiper Systems
Mission
Operational Commercial Communications
Bus & Motor
KUIPER, Unknown motor
Mass
~490 kg wet, ~490 kg dry
Launch date (UTC)
2026-02-12 (4 months ago)
Launch vehicle
ARIANE 64
Launch site
French Guiana (FRGUI)
Object type
Payload
Rocket body
Debris
Shape & HBR
Box + 2 Pan, 3.4 m
Radar Cross Section
2.326 m², Large (>1 m²)

Expand to show TLE details & history
Last TLE update: 10 hours ago

TLE from 10 hours ago
0 KUIPER-00276
1 67794U 26030AG  26171.41668980 -.00051267  00000-0 -56147-2 0  9991
2 67794  51.8981  93.9998 0016664  37.5484 192.7159 14.87390062  5074
Epoch: 2026-06-20T10:00Z
TLE epoch observation values (Epoch: 2026-06-20T10:00:01.998Z)
Latitude
-37.41137°
Longitude
-108.01864°
Altitude
629.425 km
Speed
7.538 km/s
True Right ascension
20h 42m 29s
True Declination
-37° 14' 33"
Sunlit
Object was in full shadow at epoch
Visualization orbit readout
Latitude
Unknown
Longitude
Unknown
Altitude
Unknown
Speed
Unknown
Apparent Right ascension
Unknown
Apparent Declination
Unknown
Sunlit
N/A
Visualization observer readout
Local Sidereal Time
07:23:01
Azimuth
Unknown
Elevation
Unknown
Doppler factor
Unknown
Orbital elements
Apogee altitude
618.186 km
Perigee altitude
594.908 km
Semi-major axis
6,984.684 km
Eccentricity
0.00167
Inclination
51.8981°
RAAN
93.9998°
Arg. of periapsis
37.5484°
True anomaly
192.67395°
Mean anomaly
192.7159°
Eccentric anomaly
192.69492°
Mean motion
3.71812 °/min
Orbital period
96.82 mins
BSTAR
-0.0056147
Loading maneuver chart data...
Computing Atmospheric mass density...
Loading historical data...
Loading historical data...
Loading historical data...
Loading historical data...
Loading historical data...
Loading historical data...
Loading historical data...

Documentation

Showing up to 5 results
|